Abakan, Russia

5:37 PM +07 on November 21, 2019 (GMT +0700)
Abakan

Weather History for UNAA - September, 2019

Change the Weather History Date:

Sunday, September 29, 2019

  Actual Average (WUND) Record (WUND)
Temperature  
Mean Temperature 46 °F -  
Max Temperature 50 °F - - (-1)
Min Temperature 41 °F - - (-1)
Degree Days  
Heating Degree Days 20    
Moisture  
Dew Point 37 °F    
Average Humidity 76    
Maximum Humidity 87    
Minimum Humidity 58    
Precipitation  
Precipitation 0.00 in - - ()
Sea Level Pressure  
Sea Level Pressure 29.78 in    
Wind  
Wind Speed 4 mph ()    
Max Wind Speed 11 mph    
Max Gust Speed -    
Visibility 6.2 miles    
Events Rain    
Averages and records for this station are not official NWS values.
T = Trace of Precipitation, MM = Missing Value Source: Averaged Metar Reports

Daily Weather History Graph

Daily Weather History Graph

Search for Another Location

Airport or City:

Astronomy

Sep. 29, 2019 Rise Set
Actual Time 6:51 AM +07 6:37 PM +07
Civil Twilight 6:16 AM +07 7:12 PM +07
Nautical Twilight 5:35 AM +07 7:53 PM +07
Astronomical Twilight 4:52 AM +07 8:35 PM +07
Moon 6:59 AM +07 (9/29) 7:20 PM +07 (9/29)
Length of Visible Light 12h 55m
Length of Day
11h 45m
New Moon, 0% of the Moon is Illuminated
Sep 29
New Moon
Oct 5
First Quarter
Oct 14
Full
Oct 21
Last Quarter
Oct 28
New

Hourly Weather History & Observations

Time (+07) Temp. Windchill Dew Point Humidity Pressure Visibility Wind Dir Wind Speed Gust Speed Precip Events Conditions
12:00 AM 44.6 °F 42.3 °F 35.6 °F 71% 29.83 in - Variable 4.5 mph - N/A   Clear
12:30 AM 44.6 °F 42.3 °F 35.6 °F 71% 29.86 in - NNW 4.5 mph - N/A   Clear
1:00 AM 44.6 °F 40.8 °F 35.6 °F 71% 29.86 in - WNW 6.7 mph - N/A   Clear
1:30 AM 44.6 °F - 35.6 °F 71% 29.86 in - Variable 2.2 mph - N/A   Clear
2:00 AM 44.6 °F - 35.6 °F 71% 29.86 in - Calm Calm - N/A   Clear
2:30 AM 42.8 °F - 37.4 °F 81% 29.86 in - NNE 2.2 mph - N/A   Clear
3:00 AM 44.6 °F - 35.6 °F 71% 29.86 in - Calm Calm - N/A   Clear
3:30 AM 42.8 °F - 37.4 °F 81% 29.83 in - Variable 2.2 mph - N/A   Clear
4:00 AM 42.8 °F - 37.4 °F 81% 29.83 in - Variable 2.2 mph - N/A   Clear
4:30 AM 41.0 °F 38.1 °F 37.4 °F 87% 29.83 in - North 4.5 mph - N/A   Clear
5:00 AM 42.8 °F 40.2 °F 37.4 °F 81% 29.83 in - Variable 4.5 mph - N/A   Clear
5:30 AM 41.0 °F - 37.4 °F 87% 29.83 in 6.2 mi Variable 2.2 mph - N/A   Scattered Clouds
6:00 AM 41.0 °F - 37.4 °F 87% 29.83 in 6.2 mi Calm Calm - N/A   Scattered Clouds
6:30 AM 41.0 °F - 37.4 °F 87% 29.83 in 6.2 mi North 2.2 mph - N/A   Scattered Clouds
7:00 AM 41.0 °F 38.1 °F 37.4 °F 87% 29.80 in 6.2 mi North 4.5 mph - N/A   Scattered Clouds
7:30 AM 41.0 °F - 37.4 °F 87% 29.80 in 6.2 mi WNW 2.2 mph - N/A   Scattered Clouds
8:00 AM 41.0 °F 38.1 °F 37.4 °F 87% 29.80 in 6.2 mi NNW 4.5 mph - N/A   Scattered Clouds
8:30 AM 42.8 °F 40.2 °F 37.4 °F 81% 29.80 in 6.2 mi NNW 4.5 mph - N/A   Scattered Clouds
9:30 AM 46.4 °F 43.0 °F 37.4 °F 71% 29.80 in 6.2 mi North 6.7 mph - N/A   Scattered Clouds
10:00 AM 46.4 °F 42.0 °F 35.6 °F 66% 29.77 in 6.2 mi North 8.9 mph - N/A   Scattered Clouds
10:30 AM 46.4 °F 44.4 °F 37.4 °F 71% 29.77 in 6.2 mi North 4.5 mph - N/A   Mostly Cloudy
11:00 AM 46.4 °F 44.4 °F 35.6 °F 66% 29.77 in 6.2 mi NE 4.5 mph - N/A   Mostly Cloudy
11:30 AM 46.4 °F - 35.6 °F 66% 29.77 in 6.2 mi Calm Calm - N/A   Mostly Cloudy
12:00 PM 46.4 °F 44.4 °F 37.4 °F 71% 29.80 in 6.2 mi SSE 4.5 mph - N/A   Mostly Cloudy
12:30 PM 48.2 °F - 39.2 °F 71% 29.77 in - South 6.7 mph - N/A   Clear
1:00 PM 46.4 °F 43.0 °F 37.4 °F 71% 29.77 in 6.2 mi South 6.7 mph - N/A   Scattered Clouds
1:30 PM 46.4 °F 42.0 °F 37.4 °F 71% 29.80 in 6.2 mi SSW 8.9 mph - N/A   Scattered Clouds
2:00 PM 46.4 °F 43.0 °F 35.6 °F 66% 29.77 in 6.2 mi South 6.7 mph - N/A   Scattered Clouds
2:30 PM 48.2 °F - 37.4 °F 66% 29.77 in 6.2 mi South 4.5 mph - N/A   Scattered Clouds
3:00 PM 50.0 °F - 35.6 °F 58% 29.77 in 6.2 mi Variable 2.2 mph - N/A   Scattered Clouds
3:30 PM 50.0 °F - 37.4 °F 62% 29.74 in - East 4.5 mph - N/A   Clear
4:30 PM 50.0 °F - 35.6 °F 58% 29.74 in - SE 2.2 mph - N/A   Clear
5:00 PM 48.2 °F - 37.4 °F 66% 29.71 in - East 6.7 mph - N/A   Clear
6:00 PM 46.4 °F 43.0 °F 39.2 °F 76% 29.71 in - East 6.7 mph - N/A   Clear
6:30 PM 46.4 °F 43.0 °F 39.2 °F 76% 29.71 in - East 6.7 mph - N/A   Clear
7:00 PM 46.4 °F 42.0 °F 39.2 °F 76% 29.71 in - East 8.9 mph - N/A   Clear
7:30 PM 44.6 °F 39.8 °F 39.2 °F 81% 29.71 in - ESE 8.9 mph - N/A   Clear
8:00 PM 44.6 °F 39.8 °F 39.2 °F 81% 29.71 in - ESE 8.9 mph - N/A   Clear
8:30 PM 44.6 °F 39.8 °F 39.2 °F 81% 29.71 in - SE 8.9 mph - N/A   Clear
9:00 PM 44.6 °F 40.8 °F 39.2 °F 81% 29.71 in 6.2 mi SE 6.7 mph - N/A Rain Light Rain Showers
9:30 PM 42.8 °F 37.6 °F 39.2 °F 87% 29.71 in 6.2 mi SSE 8.9 mph - N/A Rain Light Rain Showers
10:00 PM 42.8 °F 37.6 °F 39.2 °F 87% 29.68 in 6.2 mi SSE 8.9 mph - N/A   Scattered Clouds
10:30 PM 42.8 °F 36.7 °F 39.2 °F 87% 29.68 in - SSE 11.2 mph - N/A   Clear
11:00 PM 42.8 °F 37.6 °F 39.2 °F 87% 29.68 in - SSE 8.9 mph - N/A   Clear
11:30 PM 42.8 °F 37.6 °F 39.2 °F 87% 29.65 in - SSE 8.9 mph - N/A   Clear